Location: Sihaung
(22.8641°N, 94.0549°E)
Time: 17:58:25
(UTC+00:00)

Cosmos 1500 - Pass Details

Date: 03 March 2021
Orbit: 499 x 517 km, 82.5° (Epoch: 12 April)

Event Time Altitude Azimuth Distance (km) Brightness Sun altitude
Rises 12:21:04 0° 175° (S) 2,581 6.7 -8.4°
Reaches altitude 10° 12:23:13 10° 171° (S) 1,698 5.8 -8.9°
Maximum altitude 12:26:50 53° 93° (E) 617 3.2 -9.7°
Drops below altitude 10° 12:30:28 10° 16° (NNE) 1,701 5.6 -10.6°
Sets 12:32:37 0° 12° (NNE) 2,585 6.6 -11.1°
